This is the latest recevied weather packets stored in our database for station/object IW9CSJ-13. If no packets are shown the sender has not sent any weather packets the latest 10 day(s).
| Time | Temp. | Humidity | Pressure | Rain* | Wind** | Luminosity | Snow |
|---|---|---|---|---|---|---|---|
| 1788257420 | 31.11° C | 52% | 1017.1 hPa | 0 mm | - | - | - |
| 1788256820 | 31.11° C | 52% | 1017.2 hPa | 0 mm | - | - | - |
| 1788256221 | 30.56° C | 55% | 1017.3 hPa | 0 mm | - | - | - |
| 1788255921 | 30° C | 55% | 1017.5 hPa | 0 mm | - | - | - |
| 1788255320 | 30° C | 56% | 1017.5 hPa | 0 mm | - | - | - |
| 1788255020 | 30.56° C | 55% | 1017.5 hPa | 0 mm | - | - | - |
| 1788252920 | 31.11° C | 53% | 1017.3 hPa | 0 mm | - | - | - |
| 1788252640 | 30.56° C | 55% | 1017.3 hPa | 0 mm | - | - | - |
| 1788252020 | 30° C | 56% | 1017.3 hPa | 0 mm | - | - | - |
| 1788251725 | 30° C | 56% | 1017.3 hPa | 0 mm | - | - | - |
| 1788251420 | 30.56° C | 56% | 1017.2 hPa | 0 mm | - | - | - |
| 1788251121 | 30.56° C | 56% | 1017.1 hPa | 0 mm | - | - | - |
| 1788250220 | 30.56° C | 57% | 1017.1 hPa | 0 mm | - | - | - |
| 1788249920 | 30° C | 58% | 1017.1 hPa | 0 mm | - | - | - |
| 1788249620 | 30° C | 58% | 1017.1 hPa | 0 mm | - | - | - |
| 1788249321 | 28.89° C | 58% | 1017.1 hPa | 0 mm | - | - | - |
| 1788249020 | 28.89° C | 58% | 1017.1 hPa | 0 mm | - | - | - |
| 1788248721 | 28.89° C | 58% | 1017 hPa | 0 mm | - | - | - |
| 1788248421 | 28.89° C | 58% | 1017.2 hPa | 0 mm | - | - | - |
| 1788248120 | 28.89° C | 59% | 1017 hPa | 0 mm | - | - | - |
| 1788246921 | 28.89° C | 63% | 1016.9 hPa | 0 mm | - | - | - |
| 1788246621 | 28.33° C | 64% | 1016.8 hPa | 0 mm | - | - | - |
| 1788246321 | 28.33° C | 64% | 1016.8 hPa | 0 mm | - | - | - |
| 1788246021 | 28.33° C | 64% | 1016.7 hPa | 0 mm | - | - | - |
| 1788245420 | 27.78° C | 66% | 1016.6 hPa | 0 mm | - | - | - |
* Rain latest hour (hover to see other rain measurements)
** Current wind speed in m/s (hover to see current wind gust speed)